owner,sensor,date,latitude,longitude,air_temperature,qcFlag 
COMPS,ioos:station:USF.COMPS:C10:1,2009-03-01T00:00:00Z,27.1690,-82.9260,17.88,1111122 
COMPS,ioos:station:USF.COMPS:C10:1,2009-03-01T00:20:00Z,27.1690,-82.9260,17.86,1111122 
COMPS,ioos:station:USF.COMPS:C10:1,2009-03-01T00:40:00Z,27.1690,-82.9260,17.89,1111122 
COMPS,ioos:station:USF.COMPS:C10:1,2009-03-01T01:00:00Z,27.1690,-82.9260,17.94,1111122 
COMPS,ioos:station:USF.COMPS:C10:1,2009-03-01T01:20:00Z,27.1690,-82.9260,17.93,1111122 
COMPS,ioos:station:USF.COMPS:C10:1,2009-03-01T01:40:00Z,27.1690,-82.9260,18.0,1111122 
COMPS,ioos:station:USF.COMPS:C10:1,2009-03-01T02:00:00Z,27.1690,-82.9260,17.98,1111122 
COMPS,ioos:station:USF.COMPS:C10:1,2009-03-01T02:20:00Z,27.1690,-82.9260,17.95,1111122 
COMPS,ioos:station:USF.COMPS:C10:1,2009-03-01T02:40:00Z,27.1690,-82.9260,18.0,1111122 
COMPS,ioos:station:USF.COMPS:C10:1,2009-03-01T03:00:00Z,27.1690,-82.9260,18.01,1111122 
COMPS,ioos:station:USF.COMPS:C10:1,2009-03-01T03:20:00Z,27.1690,-82.9260,18.05,1111122 
COMPS,ioos:station:USF.COMPS:C10:1,2009-03-01T03:40:00Z,27.1690,-82.9260,18.09,1111122 
COMPS,ioos:station:USF.COMPS:C10:1,2009-03-01T04:00:00Z,27.1690,-82.9260,18.12,1111122 
COMPS,ioos:station:USF.COMPS:C10:1,2009-03-01T04:20:00Z,27.1690,-82.9260,18.11,1111122 
COMPS,ioos:station:USF.COMPS:C10:1,2009-03-01T04:40:00Z,27.1690,-82.9260,18.22,1111122 
COMPS,ioos:station:USF.COMPS:C10:1,2009-03-01T05:00:00Z,27.1690,-82.9260,18.22,1111122 
COMPS,ioos:station:USF.COMPS:C10:1,2009-03-01T05:20:00Z,27.1690,-82.9260,18.3,1111122 
COMPS,ioos:station:USF.COMPS:C10:1,2009-03-01T05:40:00Z,27.1690,-82.9260,18.34,1111122 
COMPS,ioos:station:USF.COMPS:C10:1,2009-03-01T06:00:00Z,27.1690,-82.9260,18.43,1111122 
COMPS,ioos:station:USF.COMPS:C10:1,2009-03-01T06:20:00Z,27.1690,-82.9260,18.4,1111122 
COMPS,ioos:station:USF.COMPS:C10:1,2009-03-01T06:40:00Z,27.1690,-82.9260,18.43,1111122 
COMPS,ioos:station:USF.COMPS:C10:1,2009-03-01T07:00:00Z,27.1690,-82.9260,18.46,1111122 
COMPS,ioos:station:USF.COMPS:C10:1,2009-03-01T07:20:00Z,27.1690,-82.9260,18.4,1111122 
COMPS,ioos:station:USF.COMPS:C10:1,2009-03-01T07:40:00Z,27.1690,-82.9260,18.37,1111122 
COMPS,ioos:station:USF.COMPS:C10:1,2009-03-01T08:00:00Z,27.1690,-82.9260,18.36,1111122 
COMPS,ioos:station:USF.COMPS:C10:1,2009-03-01T08:20:00Z,27.1690,-82.9260,18.45,1111122 
COMPS,ioos:station:USF.COMPS:C10:1,2009-03-01T08:40:00Z,27.1690,-82.9260,18.49,1111122 
COMPS,ioos:station:USF.COMPS:C10:1,2009-03-01T09:00:00Z,27.1690,-82.9260,18.53,1111122 
COMPS,ioos:station:USF.COMPS:C10:1,2009-03-01T09:20:00Z,27.1690,-82.9260,18.56,1111122 
COMPS,ioos:station:USF.COMPS:C10:1,2009-03-01T09:40:00Z,27.1690,-82.9260,18.5,1111122 
COMPS,ioos:station:USF.COMPS:C10:1,2009-03-01T10:00:00Z,27.1690,-82.9260,18.43,1111122 
COMPS,ioos:station:USF.COMPS:C10:1,2009-03-01T10:20:00Z,27.1690,-82.9260,18.43,1111122 
COMPS,ioos:station:USF.COMPS:C10:1,2009-03-01T10:40:00Z,27.1690,-82.9260,18.44,1111122 
COMPS,ioos:station:USF.COMPS:C10:1,2009-03-01T11:00:00Z,27.1690,-82.9260,18.47,1111122 
COMPS,ioos:station:USF.COMPS:C10:1,2009-03-01T11:20:00Z,27.1690,-82.9260,18.42,1111122 
COMPS,ioos:station:USF.COMPS:C10:1,2009-03-01T11:40:00Z,27.1690,-82.9260,18.43,1111122 
COMPS,ioos:station:USF.COMPS:C10:1,2009-03-01T12:00:00Z,27.1690,-82.9260,18.4,1111122 
COMPS,ioos:station:USF.COMPS:C10:1,2009-03-01T12:20:00Z,27.1690,-82.9260,18.46,1111122 
COMPS,ioos:station:USF.COMPS:C10:1,2009-03-01T12:40:00Z,27.1690,-82.9260,18.56,1111122 
COMPS,ioos:station:USF.COMPS:C10:1,2009-03-01T13:00:00Z,27.1690,-82.9260,17.78,1111122 
COMPS,ioos:station:USF.COMPS:C10:1,2009-03-01T13:20:00Z,27.1690,-82.9260,17.02,1111122 
COMPS,ioos:station:USF.COMPS:C10:1,2009-03-01T13:40:00Z,27.1690,-82.9260,16.63,1111122 
COMPS,ioos:station:USF.COMPS:C10:1,2009-03-01T14:00:00Z,27.1690,-82.9260,15.9,1111122 
COMPS,ioos:station:USF.COMPS:C10:1,2009-03-01T14:20:00Z,27.1690,-82.9260,15.76,1111122 
COMPS,ioos:station:USF.COMPS:C10:1,2009-03-01T14:40:00Z,27.1690,-82.9260,15.0,1111122 
COMPS,ioos:station:USF.COMPS:C10:1,2009-03-01T15:00:00Z,27.1690,-82.9260,14.62,1111122 
COMPS,ioos:station:USF.COMPS:C10:1,2009-03-01T15:20:00Z,27.1690,-82.9260,13.73,1111122 
COMPS,ioos:station:USF.COMPS:C10:1,2009-03-01T15:40:00Z,27.1690,-82.9260,14.29,1111122 
COMPS,ioos:station:USF.COMPS:C10:1,2009-03-01T16:00:00Z,27.1690,-82.9260,15.09,1111122 
COMPS,ioos:station:USF.COMPS:C10:1,2009-03-01T16:20:00Z,27.1690,-82.9260,15.23,1111122 
COMPS,ioos:station:USF.COMPS:C10:1,2009-03-01T16:40:00Z,27.1690,-82.9260,15.22,1111122 
COMPS,ioos:station:USF.COMPS:C10:1,2009-03-01T17:00:00Z,27.1690,-82.9260,15.5,1111122 
COMPS,ioos:station:USF.COMPS:C10:1,2009-03-01T17:20:00Z,27.1690,-82.9260,15.5,1111122 
COMPS,ioos:station:USF.COMPS:C10:1,2009-03-01T17:40:00Z,27.1690,-82.9260,14.92,1111122 
COMPS,ioos:station:USF.COMPS:C10:1,2009-03-01T18:00:00Z,27.1690,-82.9260,15.02,1111122 
COMPS,ioos:station:USF.COMPS:C10:1,2009-03-01T18:20:00Z,27.1690,-82.9260,14.78,1111122 
COMPS,ioos:station:USF.COMPS:C10:1,2009-03-01T18:40:00Z,27.1690,-82.9260,14.99,1111122 
COMPS,ioos:station:USF.COMPS:C10:1,2009-03-01T19:00:00Z,27.1690,-82.9260,14.62,1111122 
COMPS,ioos:station:USF.COMPS:C10:1,2009-03-01T19:20:00Z,27.1690,-82.9260,14.47,1111122 
COMPS,ioos:station:USF.COMPS:C10:1,2009-03-01T19:40:00Z,27.1690,-82.9260,14.36,1111122 
COMPS,ioos:station:USF.COMPS:C10:1,2009-03-01T20:00:00Z,27.1690,-82.9260,14.38,1111122 
COMPS,ioos:station:USF.COMPS:C10:1,2009-03-01T20:20:00Z,27.1690,-82.9260,14.42,1111122 
COMPS,ioos:station:USF.COMPS:C10:1,2009-03-01T20:40:00Z,27.1690,-82.9260,14.26,1111122 
COMPS,ioos:station:USF.COMPS:C10:1,2009-03-01T21:00:00Z,27.1690,-82.9260,14.09,1111122 
COMPS,ioos:station:USF.COMPS:C10:1,2009-03-01T21:20:00Z,27.1690,-82.9260,14.26,1111122 
COMPS,ioos:station:USF.COMPS:C10:1,2009-03-01T21:40:00Z,27.1690,-82.9260,14.28,1111122 
COMPS,ioos:station:USF.COMPS:C10:1,2009-03-01T22:00:00Z,27.1690,-82.9260,14.22,1111122 
COMPS,ioos:station:USF.COMPS:C10:1,2009-03-01T22:20:00Z,27.1690,-82.9260,14.15,1111122 
COMPS,ioos:station:USF.COMPS:C10:1,2009-03-01T22:40:00Z,27.1690,-82.9260,14.28,1111122 
COMPS,ioos:station:USF.COMPS:C10:1,2009-03-01T23:00:00Z,27.1690,-82.9260,14.2,1111122 
COMPS,ioos:station:USF.COMPS:C10:1,2009-03-01T23:20:00Z,27.1690,-82.9260,14.28,1111122 
COMPS,ioos:station:USF.COMPS:C10:1,2009-03-01T23:40:00Z,27.1690,-82.9260,14.19,1111122 
COMPS,ioos:station:USF.COMPS:C10:1,2009-03-02T00:00:00Z,27.1690,-82.9260,13.99,1111122 
COMPS,ioos:station:USF.COMPS:C10:1,2009-03-02T00:20:00Z,27.1690,-82.9260,13.89,1111122 
COMPS,ioos:station:USF.COMPS:C10:1,2009-03-02T00:40:00Z,27.1690,-82.9260,14.08,1111122 
COMPS,ioos:station:USF.COMPS:C10:1,2009-03-02T01:00:00Z,27.1690,-82.9260,14.17,1111122 
COMPS,ioos:station:USF.COMPS:C10:1,2009-03-02T01:20:00Z,27.1690,-82.9260,14.14,1111122 
COMPS,ioos:station:USF.COMPS:C10:1,2009-03-02T01:40:00Z,27.1690,-82.9260,14.1,1111122 
COMPS,ioos:station:USF.COMPS:C10:1,2009-03-02T02:00:00Z,27.1690,-82.9260,13.95,1111122 
COMPS,ioos:station:USF.COMPS:C10:1,2009-03-02T02:20:00Z,27.1690,-82.9260,13.79,1111122 
COMPS,ioos:station:USF.COMPS:C10:1,2009-03-02T02:40:00Z,27.1690,-82.9260,13.57,1111122 
COMPS,ioos:station:USF.COMPS:C10:1,2009-03-02T03:00:00Z,27.1690,-82.9260,13.3,1111122 
COMPS,ioos:station:USF.COMPS:C10:1,2009-03-02T03:20:00Z,27.1690,-82.9260,13.5,1111122 
COMPS,ioos:station:USF.COMPS:C10:1,2009-03-02T03:40:00Z,27.1690,-82.9260,13.38,1111122 
COMPS,ioos:station:USF.COMPS:C10:1,2009-03-02T04:00:00Z,27.1690,-82.9260,12.24,1111122 
COMPS,ioos:station:USF.COMPS:C10:1,2009-03-02T04:20:00Z,27.1690,-82.9260,12.74,1111122 
COMPS,ioos:station:USF.COMPS:C10:1,2009-03-02T04:40:00Z,27.1690,-82.9260,12.31,1111122 
COMPS,ioos:station:USF.COMPS:C10:1,2009-03-02T05:00:00Z,27.1690,-82.9260,11.94,1111122 
COMPS,ioos:station:USF.COMPS:C10:1,2009-03-02T05:20:00Z,27.1690,-82.9260,11.47,1111122 
COMPS,ioos:station:USF.COMPS:C10:1,2009-03-02T05:40:00Z,27.1690,-82.9260,11.23,1111122 
COMPS,ioos:station:USF.COMPS:C10:1,2009-03-02T06:00:00Z,27.1690,-82.9260,11.54,1111122 
COMPS,ioos:station:USF.COMPS:C10:1,2009-03-02T06:20:00Z,27.1690,-82.9260,11.7,1111122 
COMPS,ioos:station:USF.COMPS:C10:1,2009-03-02T06:40:00Z,27.1690,-82.9260,11.72,1111122 
COMPS,ioos:station:USF.COMPS:C10:1,2009-03-02T07:00:00Z,27.1690,-82.9260,11.88,1111122 
COMPS,ioos:station:USF.COMPS:C10:1,2009-03-02T07:20:00Z,27.1690,-82.9260,12.05,1111122 
COMPS,ioos:station:USF.COMPS:C10:1,2009-03-02T07:40:00Z,27.1690,-82.9260,12.2,1111122 
COMPS,ioos:station:USF.COMPS:C10:1,2009-03-02T08:00:00Z,27.1690,-82.9260,12.34,1111122 
COMPS,ioos:station:USF.COMPS:C10:1,2009-03-02T08:20:00Z,27.1690,-82.9260,12.43,1111122 
COMPS,ioos:station:USF.COMPS:C10:1,2009-03-02T08:40:00Z,27.1690,-82.9260,12.42,1111122 
COMPS,ioos:station:USF.COMPS:C10:1,2009-03-02T09:00:00Z,27.1690,-82.9260,12.52,1111122 
COMPS,ioos:station:USF.COMPS:C10:1,2009-03-02T09:20:00Z,27.1690,-82.9260,12.4,1111122 
COMPS,ioos:station:USF.COMPS:C10:1,2009-03-02T09:40:00Z,27.1690,-82.9260,12.37,1111122 
COMPS,ioos:station:USF.COMPS:C10:1,2009-03-02T10:00:00Z,27.1690,-82.9260,12.46,1111122 
COMPS,ioos:station:USF.COMPS:C10:1,2009-03-02T10:20:00Z,27.1690,-82.9260,12.27,1111122 
COMPS,ioos:station:USF.COMPS:C10:1,2009-03-02T10:40:00Z,27.1690,-82.9260,12.11,1111122 
COMPS,ioos:station:USF.COMPS:C10:1,2009-03-02T11:00:00Z,27.1690,-82.9260,11.95,1111122 
COMPS,ioos:station:USF.COMPS:C10:1,2009-03-02T11:20:00Z,27.1690,-82.9260,11.95,1111122 
COMPS,ioos:station:USF.COMPS:C10:1,2009-03-02T11:40:00Z,27.1690,-82.9260,11.82,1111122 
COMPS,ioos:station:USF.COMPS:C10:1,2009-03-02T12:00:00Z,27.1690,-82.9260,11.66,1111122 
COMPS,ioos:station:USF.COMPS:C10:1,2009-03-02T12:20:00Z,27.1690,-82.9260,11.64,1111122 
COMPS,ioos:station:USF.COMPS:C10:1,2009-03-02T12:40:00Z,27.1690,-82.9260,11.68,1111122 
COMPS,ioos:station:USF.COMPS:C10:1,2009-03-02T13:00:00Z,27.1690,-82.9260,11.73,1111122 
COMPS,ioos:station:USF.COMPS:C10:1,2009-03-02T13:20:00Z,27.1690,-82.9260,11.62,1111122 
COMPS,ioos:station:USF.COMPS:C10:1,2009-03-02T13:40:00Z,27.1690,-82.9260,11.86,1111122 
COMPS,ioos:station:USF.COMPS:C10:1,2009-03-02T14:00:00Z,27.1690,-82.9260,11.54,1111122 
COMPS,ioos:station:USF.COMPS:C10:1,2009-03-02T14:20:00Z,27.1690,-82.9260,11.54,1111122 
COMPS,ioos:station:USF.COMPS:C10:1,2009-03-02T14:40:00Z,27.1690,-82.9260,11.47,1111122 
COMPS,ioos:station:USF.COMPS:C10:1,2009-03-02T15:00:00Z,27.1690,-82.9260,11.47,1111122 
COMPS,ioos:station:USF.COMPS:C10:1,2009-03-02T15:20:00Z,27.1690,-82.9260,11.35,1111122 
COMPS,ioos:station:USF.COMPS:C10:1,2009-03-02T15:40:00Z,27.1690,-82.9260,11.33,1111122 
COMPS,ioos:station:USF.COMPS:C10:1,2009-03-02T16:00:00Z,27.1690,-82.9260,11.34,1111122 
COMPS,ioos:station:USF.COMPS:C10:1,2009-03-02T16:20:00Z,27.1690,-82.9260,11.54,1111122 
COMPS,ioos:station:USF.COMPS:C10:1,2009-03-02T16:40:00Z,27.1690,-82.9260,11.56,1111122 
COMPS,ioos:station:USF.COMPS:C10:1,2009-03-02T17:00:00Z,27.1690,-82.9260,11.53,1111122 
COMPS,ioos:station:USF.COMPS:C10:1,2009-03-02T17:20:00Z,27.1690,-82.9260,11.45,1111122 
COMPS,ioos:station:USF.COMPS:C10:1,2009-03-02T17:40:00Z,27.1690,-82.9260,11.59,1111122 
COMPS,ioos:station:USF.COMPS:C10:1,2009-03-02T18:00:00Z,27.1690,-82.9260,11.48,1111122 
COMPS,ioos:station:USF.COMPS:C10:1,2009-03-02T18:20:00Z,27.1690,-82.9260,11.63,1111122 
COMPS,ioos:station:USF.COMPS:C10:1,2009-03-02T18:40:00Z,27.1690,-82.9260,11.67,1111122 
COMPS,ioos:station:USF.COMPS:C10:1,2009-03-02T19:00:00Z,27.1690,-82.9260,11.71,1111122 
COMPS,ioos:station:USF.COMPS:C10:1,2009-03-02T19:20:00Z,27.1690,-82.9260,11.74,1111122 
COMPS,ioos:station:USF.COMPS:C10:1,2009-03-02T19:40:00Z,27.1690,-82.9260,11.82,1111122 
COMPS,ioos:station:USF.COMPS:C10:1,2009-03-02T20:00:00Z,27.1690,-82.9260,12.3,1111122 
COMPS,ioos:station:USF.COMPS:C10:1,2009-03-02T20:20:00Z,27.1690,-82.9260,12.25,1111122 
COMPS,ioos:station:USF.COMPS:C10:1,2009-03-02T20:40:00Z,27.1690,-82.9260,12.33,1111122 
COMPS,ioos:station:USF.COMPS:C10:1,2009-03-02T21:00:00Z,27.1690,-82.9260,12.74,1111122 
COMPS,ioos:station:USF.COMPS:C10:1,2009-03-02T21:20:00Z,27.1690,-82.9260,12.58,1111122 
COMPS,ioos:station:USF.COMPS:C10:1,2009-03-02T21:40:00Z,27.1690,-82.9260,12.51,1111122 
COMPS,ioos:station:USF.COMPS:C10:1,2009-03-02T22:00:00Z,27.1690,-82.9260,12.34,1111122 
COMPS,ioos:station:USF.COMPS:C10:1,2009-03-02T22:20:00Z,27.1690,-82.9260,12.61,1111122 
COMPS,ioos:station:USF.COMPS:C10:1,2009-03-02T22:40:00Z,27.1690,-82.9260,12.64,1111122 
COMPS,ioos:station:USF.COMPS:C10:1,2009-03-03T00:00:00Z,27.1690,-82.9260,13.14,1111122 
COMPS,ioos:station:USF.COMPS:C10:1,2009-03-03T00:20:00Z,27.1690,-82.9260,13.21,1111122 
COMPS,ioos:station:USF.COMPS:C10:1,2009-03-03T00:40:00Z,27.1690,-82.9260,13.08,1111122 
COMPS,ioos:station:USF.COMPS:C10:1,2009-03-03T01:00:00Z,27.1690,-82.9260,13.18,1111122 
COMPS,ioos:station:USF.COMPS:C10:1,2009-03-03T01:20:00Z,27.1690,-82.9260,13.24,1111122 
COMPS,ioos:station:USF.COMPS:C10:1,2009-03-03T01:40:00Z,27.1690,-82.9260,13.28,1111122 
COMPS,ioos:station:USF.COMPS:C10:1,2009-03-03T02:00:00Z,27.1690,-82.9260,13.33,1111122 
COMPS,ioos:station:USF.COMPS:C10:1,2009-03-03T02:20:00Z,27.1690,-82.9260,13.32,1111122 
COMPS,ioos:station:USF.COMPS:C10:1,2009-03-03T02:40:00Z,27.1690,-82.9260,13.33,1111122 
COMPS,ioos:station:USF.COMPS:C10:1,2009-03-03T03:00:00Z,27.1690,-82.9260,13.26,1111122 
COMPS,ioos:station:USF.COMPS:C10:1,2009-03-03T03:20:00Z,27.1690,-82.9260,13.3,1111122 
COMPS,ioos:station:USF.COMPS:C10:1,2009-03-03T03:40:00Z,27.1690,-82.9260,13.26,1111122 
COMPS,ioos:station:USF.COMPS:C10:1,2009-03-03T04:00:00Z,27.1690,-82.9260,13.24,1111122 
COMPS,ioos:station:USF.COMPS:C10:1,2009-03-03T04:20:00Z,27.1690,-82.9260,13.12,1111122 
COMPS,ioos:station:USF.COMPS:C10:1,2009-03-03T04:40:00Z,27.1690,-82.9260,13.06,1111122 
COMPS,ioos:station:USF.COMPS:C10:1,2009-03-03T05:00:00Z,27.1690,-82.9260,12.95,1111122 
COMPS,ioos:station:USF.COMPS:C10:1,2009-03-03T05:20:00Z,27.1690,-82.9260,12.96,1111122 
COMPS,ioos:station:USF.COMPS:C10:1,2009-03-03T05:40:00Z,27.1690,-82.9260,12.87,1111122 
COMPS,ioos:station:USF.COMPS:C10:1,2009-03-03T06:00:00Z,27.1690,-82.9260,12.84,1111122 
COMPS,ioos:station:USF.COMPS:C10:1,2009-03-03T06:20:00Z,27.1690,-82.9260,12.7,1111122 
COMPS,ioos:station:USF.COMPS:C10:1,2009-03-03T06:40:00Z,27.1690,-82.9260,12.53,1111122 
COMPS,ioos:station:USF.COMPS:C10:1,2009-03-03T07:00:00Z,27.1690,-82.9260,12.53,1111122 
COMPS,ioos:station:USF.COMPS:C10:1,2009-03-03T07:20:00Z,27.1690,-82.9260,12.23,1111122 
COMPS,ioos:station:USF.COMPS:C10:1,2009-03-03T07:40:00Z,27.1690,-82.9260,12.1,1111122 
COMPS,ioos:station:USF.COMPS:C10:1,2009-03-03T08:00:00Z,27.1690,-82.9260,12.14,1111122 
COMPS,ioos:station:USF.COMPS:C10:1,2009-03-03T08:20:00Z,27.1690,-82.9260,11.89,1111122 
COMPS,ioos:station:USF.COMPS:C10:1,2009-03-03T08:40:00Z,27.1690,-82.9260,11.81,1111122 
COMPS,ioos:station:USF.COMPS:C10:1,2009-03-03T09:00:00Z,27.1690,-82.9260,11.83,1111122 
COMPS,ioos:station:USF.COMPS:C10:1,2009-03-03T09:20:00Z,27.1690,-82.9260,11.87,1111122 
COMPS,ioos:station:USF.COMPS:C10:1,2009-03-03T09:40:00Z,27.1690,-82.9260,11.83,1111122 
COMPS,ioos:station:USF.COMPS:C10:1,2009-03-03T10:00:00Z,27.1690,-82.9260,11.68,1111122 
COMPS,ioos:station:USF.COMPS:C10:1,2009-03-03T10:20:00Z,27.1690,-82.9260,11.41,1111122 
COMPS,ioos:station:USF.COMPS:C10:1,2009-03-03T10:40:00Z,27.1690,-82.9260,11.39,1111122 
COMPS,ioos:station:USF.COMPS:C10:1,2009-03-03T11:00:00Z,27.1690,-82.9260,11.32,1111122 
COMPS,ioos:station:USF.COMPS:C10:1,2009-03-03T11:20:00Z,27.1690,-82.9260,11.04,1111122 
COMPS,ioos:station:USF.COMPS:C10:1,2009-03-03T11:40:00Z,27.1690,-82.9260,10.86,1111122 
COMPS,ioos:station:USF.COMPS:C10:1,2009-03-03T12:00:00Z,27.1690,-82.9260,11.03,1111122 
COMPS,ioos:station:USF.COMPS:C10:1,2009-03-03T12:20:00Z,27.1690,-82.9260,11.08,1111122 
COMPS,ioos:station:USF.COMPS:C10:1,2009-03-03T12:40:00Z,27.1690,-82.9260,11.11,1111122 
COMPS,ioos:station:USF.COMPS:C10:1,2009-03-03T13:00:00Z,27.1690,-82.9260,11.45,1111122 
COMPS,ioos:station:USF.COMPS:C10:1,2009-03-03T13:20:00Z,27.1690,-82.9260,11.45,1111122 
COMPS,ioos:station:USF.COMPS:C10:1,2009-03-03T13:40:00Z,27.1690,-82.9260,11.38,1111122 
COMPS,ioos:station:USF.COMPS:C10:1,2009-03-03T14:00:00Z,27.1690,-82.9260,11.34,1111122 
COMPS,ioos:station:USF.COMPS:C10:1,2009-03-03T14:20:00Z,27.1690,-82.9260,11.42,1111122 
COMPS,ioos:station:USF.COMPS:C10:1,2009-03-03T14:40:00Z,27.1690,-82.9260,11.27,1111122 
COMPS,ioos:station:USF.COMPS:C10:1,2009-03-03T15:00:00Z,27.1690,-82.9260,11.13,1111122 
COMPS,ioos:station:USF.COMPS:C10:1,2009-03-03T15:20:00Z,27.1690,-82.9260,11.16,1111122 
COMPS,ioos:station:USF.COMPS:C10:1,2009-03-03T15:40:00Z,27.1690,-82.9260,11.07,1111122 
COMPS,ioos:station:USF.COMPS:C10:1,2009-03-03T16:00:00Z,27.1690,-82.9260,11.11,1111122 
COMPS,ioos:station:USF.COMPS:C10:1,2009-03-03T16:20:00Z,27.1690,-82.9260,11.24,1111122 
COMPS,ioos:station:USF.COMPS:C10:1,2009-03-03T16:40:00Z,27.1690,-82.9260,11.06,1111122 
COMPS,ioos:station:USF.COMPS:C10:1,2009-03-03T17:00:00Z,27.1690,-82.9260,10.97,1111122 
COMPS,ioos:station:USF.COMPS:C10:1,2009-03-03T17:20:00Z,27.1690,-82.9260,11.14,1111122 
COMPS,ioos:station:USF.COMPS:C10:1,2009-03-03T17:40:00Z,27.1690,-82.9260,11.01,1111122 
COMPS,ioos:station:USF.COMPS:C10:1,2009-03-03T18:00:00Z,27.1690,-82.9260,11.09,1111122 
COMPS,ioos:station:USF.COMPS:C10:1,2009-03-03T18:20:00Z,27.1690,-82.9260,10.9,1111122 
COMPS,ioos:station:USF.COMPS:C10:1,2009-03-03T18:40:00Z,27.1690,-82.9260,10.82,1111122 
COMPS,ioos:station:USF.COMPS:C10:1,2009-03-03T19:00:00Z,27.1690,-82.9260,10.91,1111122 
COMPS,ioos:station:USF.COMPS:C10:1,2009-03-03T19:20:00Z,27.1690,-82.9260,10.95,1111122 
COMPS,ioos:station:USF.COMPS:C10:1,2009-03-03T19:40:00Z,27.1690,-82.9260,10.91,1111122 
COMPS,ioos:station:USF.COMPS:C10:1,2009-03-03T20:00:00Z,27.1690,-82.9260,11.26,1111122 
COMPS,ioos:station:USF.COMPS:C10:1,2009-03-03T20:20:00Z,27.1690,-82.9260,11.45,1111122 
COMPS,ioos:station:USF.COMPS:C10:1,2009-03-03T20:40:00Z,27.1690,-82.9260,11.92,1111122 
COMPS,ioos:station:USF.COMPS:C10:1,2009-03-03T21:00:00Z,27.1690,-82.9260,11.59,1111122 
COMPS,ioos:station:USF.COMPS:C10:1,2009-03-03T21:20:00Z,27.1690,-82.9260,11.61,1111122 
COMPS,ioos:station:USF.COMPS:C10:1,2009-03-03T21:40:00Z,27.1690,-82.9260,11.45,1111122 
COMPS,ioos:station:USF.COMPS:C10:1,2009-03-03T22:00:00Z,27.1690,-82.9260,11.73,1111122 
COMPS,ioos:station:USF.COMPS:C10:1,2009-03-03T22:20:00Z,27.1690,-82.9260,11.92,1111122 
COMPS,ioos:station:USF.COMPS:C10:1,2009-03-03T22:40:00Z,27.1690,-82.9260,12.16,1111122 
COMPS,ioos:station:USF.COMPS:C10:1,2009-03-03T23:00:00Z,27.1690,-82.9260,12.39,1111122 
COMPS,ioos:station:USF.COMPS:C10:1,2009-03-03T23:20:00Z,27.1690,-82.9260,12.52,1111122 
COMPS,ioos:station:USF.COMPS:C10:1,2009-03-03T23:40:00Z,27.1690,-82.9260,12.41,1111122 
COMPS,ioos:station:USF.COMPS:C10:1,2009-03-04T00:00:00Z,27.1690,-82.9260,12.4,1111122 
COMPS,ioos:station:USF.COMPS:C10:1,2009-03-04T00:20:00Z,27.1690,-82.9260,12.51,1111122 
COMPS,ioos:station:USF.COMPS:C10:1,2009-03-04T00:40:00Z,27.1690,-82.9260,12.44,1111122 
COMPS,ioos:station:USF.COMPS:C10:1,2009-03-04T01:00:00Z,27.1690,-82.9260,12.55,1111122 
COMPS,ioos:station:USF.COMPS:C10:1,2009-03-04T01:20:00Z,27.1690,-82.9260,12.46,1111122 
COMPS,ioos:station:USF.COMPS:C10:1,2009-03-04T01:40:00Z,27.1690,-82.9260,12.56,1111122 
COMPS,ioos:station:USF.COMPS:C10:1,2009-03-04T02:00:00Z,27.1690,-82.9260,12.83,1111122 
COMPS,ioos:station:USF.COMPS:C10:1,2009-03-04T02:20:00Z,27.1690,-82.9260,12.89,1111122 
COMPS,ioos:station:USF.COMPS:C10:1,2009-03-04T02:40:00Z,27.1690,-82.9260,13.03,1111122 
COMPS,ioos:station:USF.COMPS:C10:1,2009-03-04T03:00:00Z,27.1690,-82.9260,13.02,1111122 
COMPS,ioos:station:USF.COMPS:C10:1,2009-03-04T03:20:00Z,27.1690,-82.9260,12.89,1111122 
COMPS,ioos:station:USF.COMPS:C10:1,2009-03-04T03:40:00Z,27.1690,-82.9260,12.83,1111122 
COMPS,ioos:station:USF.COMPS:C10:1,2009-03-04T04:00:00Z,27.1690,-82.9260,12.8,1111122 
COMPS,ioos:station:USF.COMPS:C10:1,2009-03-04T04:20:00Z,27.1690,-82.9260,12.41,1111122 
COMPS,ioos:station:USF.COMPS:C10:1,2009-03-04T04:40:00Z,27.1690,-82.9260,11.82,1111122 
COMPS,ioos:station:USF.COMPS:C10:1,2009-03-04T05:00:00Z,27.1690,-82.9260,11.52,1111122 
COMPS,ioos:station:USF.COMPS:C10:1,2009-03-04T05:20:00Z,27.1690,-82.9260,11.16,1111122 
COMPS,ioos:station:USF.COMPS:C10:1,2009-03-04T05:40:00Z,27.1690,-82.9260,11.03,1111122 
COMPS,ioos:station:USF.COMPS:C10:1,2009-03-04T06:00:00Z,27.1690,-82.9260,10.5,1111122 
COMPS,ioos:station:USF.COMPS:C10:1,2009-03-04T06:20:00Z,27.1690,-82.9260,10.37,1111122 
COMPS,ioos:station:USF.COMPS:C10:1,2009-03-04T06:40:00Z,27.1690,-82.9260,10.35,1111122 
COMPS,ioos:station:USF.COMPS:C10:1,2009-03-04T07:00:00Z,27.1690,-82.9260,10.15,1111122 
COMPS,ioos:station:USF.COMPS:C10:1,2009-03-04T07:20:00Z,27.1690,-82.9260,10.21,1111122 
COMPS,ioos:station:USF.COMPS:C10:1,2009-03-04T07:40:00Z,27.1690,-82.9260,10.24,1111122 
COMPS,ioos:station:USF.COMPS:C10:1,2009-03-04T08:00:00Z,27.1690,-82.9260,9.93,1111122 
COMPS,ioos:station:USF.COMPS:C10:1,2009-03-04T08:20:00Z,27.1690,-82.9260,9.87,1111122 
COMPS,ioos:station:USF.COMPS:C10:1,2009-03-04T08:40:00Z,27.1690,-82.9260,9.79,1111122 
COMPS,ioos:station:USF.COMPS:C10:1,2009-03-04T09:00:00Z,27.1690,-82.9260,9.75,1111122 
COMPS,ioos:station:USF.COMPS:C10:1,2009-03-04T09:20:00Z,27.1690,-82.9260,9.98,1111122 
COMPS,ioos:station:USF.COMPS:C10:1,2009-03-04T09:40:00Z,27.1690,-82.9260,9.98,1111122 
COMPS,ioos:station:USF.COMPS:C10:1,2009-03-04T10:00:00Z,27.1690,-82.9260,9.93,1111122 
COMPS,ioos:station:USF.COMPS:C10:1,2009-03-04T10:20:00Z,27.1690,-82.9260,10.2,1111122 
COMPS,ioos:station:USF.COMPS:C10:1,2009-03-04T10:40:00Z,27.1690,-82.9260,10.12,1111122 
COMPS,ioos:station:USF.COMPS:C10:1,2009-03-04T11:00:00Z,27.1690,-82.9260,10.25,1111122 
COMPS,ioos:station:USF.COMPS:C10:1,2009-03-04T11:20:00Z,27.1690,-82.9260,10.31,1111122 
COMPS,ioos:station:USF.COMPS:C10:1,2009-03-04T11:40:00Z,27.1690,-82.9260,10.55,1111122 
COMPS,ioos:station:USF.COMPS:C10:1,2009-03-04T12:00:00Z,27.1690,-82.9260,10.67,1111122 
COMPS,ioos:station:USF.COMPS:C10:1,2009-03-04T12:20:00Z,27.1690,-82.9260,10.88,1111122 
COMPS,ioos:station:USF.COMPS:C10:1,2009-03-04T12:40:00Z,27.1690,-82.9260,11.41,1111122 
COMPS,ioos:station:USF.COMPS:C10:1,2009-03-04T13:00:00Z,27.1690,-82.9260,11.73,1111122 
COMPS,ioos:station:USF.COMPS:C10:1,2009-03-04T13:20:00Z,27.1690,-82.9260,11.73,1111122 
COMPS,ioos:station:USF.COMPS:C10:1,2009-03-04T13:40:00Z,27.1690,-82.9260,11.76,1111122 
COMPS,ioos:station:USF.COMPS:C10:1,2009-03-04T14:00:00Z,27.1690,-82.9260,12.13,1111122 
COMPS,ioos:station:USF.COMPS:C10:1,2009-03-04T14:20:00Z,27.1690,-82.9260,12.33,1111122 
COMPS,ioos:station:USF.COMPS:C10:1,2009-03-04T14:40:00Z,27.1690,-82.9260,12.68,1111122 
COMPS,ioos:station:USF.COMPS:C10:1,2009-03-04T15:00:00Z,27.1690,-82.9260,12.9,1111122 
COMPS,ioos:station:USF.COMPS:C10:1,2009-03-04T15:20:00Z,27.1690,-82.9260,12.78,1111122 
COMPS,ioos:station:USF.COMPS:C10:1,2009-03-04T15:40:00Z,27.1690,-82.9260,12.97,1111122 
COMPS,ioos:station:USF.COMPS:C10:1,2009-03-04T16:00:00Z,27.1690,-82.9260,13.33,1111122 
COMPS,ioos:station:USF.COMPS:C10:1,2009-03-04T16:20:00Z,27.1690,-82.9260,13.55,1111122 
COMPS,ioos:station:USF.COMPS:C10:1,2009-03-04T16:40:00Z,27.1690,-82.9260,13.86,1111122 
COMPS,ioos:station:USF.COMPS:C10:1,2009-03-04T17:00:00Z,27.1690,-82.9260,14.16,1111122 
COMPS,ioos:station:USF.COMPS:C10:1,2009-03-04T17:20:00Z,27.1690,-82.9260,14.42,1111122 
COMPS,ioos:station:USF.COMPS:C10:1,2009-03-04T17:40:00Z,27.1690,-82.9260,14.52,1111122 
COMPS,ioos:station:USF.COMPS:C10:1,2009-03-04T18:00:00Z,27.1690,-82.9260,14.77,1111122 
COMPS,ioos:station:USF.COMPS:C10:1,2009-03-04T18:20:00Z,27.1690,-82.9260,14.85,1111122 
COMPS,ioos:station:USF.COMPS:C10:1,2009-03-04T18:40:00Z,27.1690,-82.9260,14.77,1111122 
COMPS,ioos:station:USF.COMPS:C10:1,2009-03-04T19:00:00Z,27.1690,-82.9260,14.63,1111122 
COMPS,ioos:station:USF.COMPS:C10:1,2009-03-04T19:20:00Z,27.1690,-82.9260,14.67,1111122 